Regional Weather Roundup
Issued by NWS Portland, ME

Current Version | Previous Version | Text Only | Print | Product List | Glossary Off
Versions: 1 2 3 4 5 6 7 8 9 10 11 12 13 14 15 16 17 18 19 20 21 22 23 24 25 26 27 28 29 30 31 32 33 34 35 36 37 38 39 40 41 42 43 44 45 46 47 48 49 50
097 ASUS41 KGYX 220410 RWRGYX WEATHER ROUNDUP FOR MAINE AND NEW HAMPSHIRE NATIONAL WEATHER SERVICE GRAY ME 1200 AM EDT SAT JUL 22 2017 MEZ002-005-006-010-012-015-018-020-021-024-026-027-029-220500- MAINE CITY SKY/WX TMP DP RH WIND PRES REMARKS PORTLAND CLOUDY 73 61 65 W7 29.78R SANFORD N/A 71 64 78 W6 29.79S BAR HARBOR CLEAR 69 62 78 W5 29.75R WISCASSET CLOUDY 66 63 90 CALM 29.78R ROCKLAND CLEAR 66 61 84 W3 29.76R FRYEBURG CLOUDY 75 62 64 SW3 29.81R LEWISTONAUBURN CLOUDY 71 63 75 N3 29.79R AUGUSTA CLEAR 74 58 57 W6 29.78R WATERVILLE CLEAR 69 61 75 W6 29.75S BANGOR MOCLDY 73 58 59 NW6 29.75S GREENVILLE N/A 66 61 84 VRB3 29.78R MILLINOCKET CLOUDY 61 60 97 CALM 29.79R HOULTON LGT RAIN 62 54 74 CALM 29.75R PRESQUE ISLE CLOUDY 58 57 97 N5 29.75S FRENCHVILLE CLOUDY 56 54 93 W9 29.75R CARIBOU CLOUDY 59 56 89 W3 29.74R $$ NHZ002-005-008-009-011-012-014-220500- NEW HAMPSHIRE CITY SKY/WX TMP DP RH WIND PRES REMARKS PORTSMOUTH MOCLDY 76 63 64 W9 29.78S ROCHESTER CLOUDY 74 62 66 CALM 29.80R NASHUA CLOUDY 75 61 61 W6 29.83R MANCHESTER CLOUDY 76 60 57 SE7 29.81R CONCORD CLOUDY 76 62 62 NW12 29.82R LACONIA CLOUDY 75 61 61 CALM 29.83R PLYMOUTH FAIR 72 59 62 W3 29.83R BERLIN CLEAR 61 57 87 CALM 29.83S WHITEFIELD PTCLDY 66 60 81 W3 29.84S JAFFREY MOCLDY 72 60 66 W5 29.88S KEENE PTCLDY 66 62 87 CALM 29.86R LEBANON MOCLDY 67 60 78 SE5 29.85R MT WASHINGTON FOG 50 50 100 NW52G66 N/A VSB 0 $$ VTZ005-007-008-220500- VERMONT CITY SKY/WX TMP DP RH WIND PRES REMARKS ST JOHNSBURY N/A 69 65 86 MISG 29.82R MONTPELIER PTCLDY 65 63 93 W3 29.91R BURLINGTON PTCLDY 73 65 75 VRB3 29.84R $$ MAZ007-012-024-CTZ003-RIZ002-NYZ038-NYZ072-220500- SOUTHERN NEW ENGLAND AND NY CITY SKY/WX TMP DP RH WIND PRES REMARKS BOSTON CLOUDY 80 59 48 W14 29.82R WORCESTER PTCLDY 75 56 51 W14G22 29.89R NANTUCKET PTCLDY 72 71 97 W13 29.84S PROVIDENCE CLEAR 77 71 82 W6 29.85R HARTFORD MOCLDY 76 68 76 NW6 29.86R ALBANY MOCLDY 73 59 61 W12 29.88R NEW YORK CITY CLOUDY 88 71 57 W10 29.86S HX 94 $$ ANZ081-ANZ082-ANZ150-NHZ014-MEZ023>029-220500- COASTAL MARINE OBSERVATIONS STATION/POSITION TIME TEMP WIND PRES WAVE AIR SEA DIR/SP/G HT/PER (UTC) (F) (DEG/KT/KT) (MB) (FT/S) MOUNT DESERT ROC 0400 61 1007.0S MATINICUS ROCK 0300 64 260/ 12/ 13 1007.1R ISLE OF SHOALS 0300 79 260/ 14/ 15 1008.1F JEFFREYS LEDGE 0336 66 N/A 2/11 CASHES LEDGE BUO 0250 71 70 1007.5 2/ 6 GEORGES BANK BUO 0250 64 63 1009.8 4/ 6 $$ .............KEY.............. WCI - WIND CHILL TC - TEMPERATURE IN CELSIUS VSB - VISIBILITY IN MILES HX - HEAT INDEX FAIR- INDICATES FEW OR NO CLOUDS BELOW 12,000 FT, WITH NO SIGNIFICANT WEATHER AND/OR OBSTRUCTIONS TO VISIBILITY.

USA.gov is the U.S. government's official web portal to all federal, state and local government web resources and services.